Weather Roundup
Issued by NWS

Home | Current Version | Previous Version | Graphics & Text | Print | Product List | Glossary Off
Versions: 1 2 3 4 5 6 7 8 9 10 11 12 13 14 15 16 17 18 19 20 21 22 23 24 25 26 27 28 29 30 31 32 33 34 35 36 37 38 39 40 41 42 43 44 45 46 47 48 49 50

377
NZUS93 KARX 221510
HRRWXR

CURRENT HOURLY OBSERVATIONS ACROSS
MUCH OF THE UPPER MISSISSIPPI VALLEY
NATIONAL WEATHER SERVICE LA CROSSE WI
1000 AM CDT THU JUN 22 2017


...SOUTHEAST MINNESOTA...


CITY           SKY/WX    TMP DP  RH WIND       PRES   REMARKS
ROCHESTER      CLOUDY    72  65  78 S9        29.69F
ROCHESTER/MAYO CLOUDY    73  65  78 SE6       29.72F
WINONA         CLOUDY    73  64  73 CALM      29.73R
AUSTIN         CLOUDY    70  64  83 S8        29.69F
ALBERT LEA     TSTM      68  64  88 W10G17    29.78R
DODGE CENTER   CLOUDY    72  64  78 N6        29.70F
PRESTON        CLOUDY    69  63  79 S9        29.71F
OWATONNA       TSTM      70  68  94 NE6       29.71S
FARIBAULT      RAIN      70  66  88 NE6       29.73S
$$

...ELSEWHERE IN MINNESOTA...


CITY           SKY/WX    TMP DP  RH WIND       PRES   REMARKS
MINNEAPOLIS    HVY RAIN  70  63  78 SE12      29.70R
INTNL FALLS    CLOUDY    65  51  60 W6        29.67S
DULUTH         CLOUDY    68  54  60 NW6       29.68F
RED WING       CLOUDY    72  66  83 CALM      29.70F
REDWOOD FALLS  TSTM      66  63  90 E3        29.77R FOG
MANKATO        LGT RAIN  70  68  94 NE10      29.68F
WORTHINGTON    CLOUDY    67  65  93 NE10      29.73F
FAIRMONT       TSTM      68  64  87 E9        29.71S
$$

...SOUTHWEST WISCONSIN...


CITY           SKY/WX    TMP DP  RH WIND       PRES   REMARKS
LA CROSSE      CLOUDY    75  66  73 S12       29.71F
PRAIRIE DU CHI DRIZZLE   65  64  96 CALM      29.81R
BOSCOBEL       LGT RAIN  69  63  81 SW9       29.80R
LONE ROCK      LGT RAIN  69  65  86 S15       29.76R
PLATTEVILLE    CLOUDY    72  67  86 NW6       29.83R
FORT MC COY    CLOUDY    73  67  81 SW3       29.74F
CAMP DOUGLAS   CLOUDY    72  68  88 S5        29.73S
MAUSTON-NEW LI CLOUDY    72  67  84 S6        29.74S
VIROQUA        FAIR      71  63  74 SW21G26   29.76F
WIS DELLS      CLOUDY    70  67  91 CALM      29.76R
$$

...ELSEWHERE IN WISCONSIN...


CITY           SKY/WX    TMP DP  RH WIND       PRES   REMARKS
MILWAUKEE      CLOUDY    78  67  68 SW12      29.76F
MADISON        CLOUDY    71  68  90 CALM      29.78R
GREEN BAY      CLOUDY    74  70  87 SW6       29.73S
EAU CLAIRE     PTSUNNY   69  68  96 SW5       29.73R
BLACK RVR FLS  LGT RAIN  71  71 100 CALM      29.73R
MEDFORD        CLOUDY    69  65  87 W5        29.72F
WAUSAU         LGT RAIN  68  66  93 SW6       29.72S
WIS RAPIDS     CLOUDY    72  67  84 SW7       29.74S
MARSHFIELD     LGT RAIN  67  63  87 SW7       29.75R
RICE LAKE      CLOUDY    66  63  88 CALM      29.74S
$$

...NORTHEAST IOWA...


CITY           SKY/WX    TMP DP  RH WIND       PRES   REMARKS
WATERLOO       CLOUDY    70  64  81 SE16      29.71F
DUBUQUE        CLOUDY    76  65  68 W7        29.84R
DECORAH        LGT RAIN  68  64  88 S17G29    29.67F
MASON CITY       N/A     70  65  84 S8        29.74R
CHARLES CITY   CLOUDY    68  68 100 S9G17     29.73R
OELWEIN        NOT AVBL
$$

...ELSEWHERE IN IOWA...


CITY           SKY/WX    TMP DP  RH WIND       PRES   REMARKS
DES MOINES     CLOUDY    80  65  59 S13       29.70S
IOWA CITY      MOSUNNY   79  69  71 S9        29.77F
FORT DODGE     MOSUNNY   81  63  54 S6        29.70S
MARSHALLTOWN   TSTM      70  66  87 SE8       29.74R
CEDAR RAPIDS   MOSUNNY   76  69  79 SW7       29.78R
$$

...NORTHERN ILLINOIS...


CITY           SKY/WX    TMP DP  RH WIND       PRES   REMARKS
CHICAGO-OHARE  PTSUNNY   83  66  56 SW17G25   29.83F
CHICAGO-MIDWAY PTSUNNY   82  69  64 S15       29.84F
MOLINE         SUNNY     82  68  62 S10       29.79F
ROCKFORD       CLOUDY    78  67  68 S15       29.83F
PEORIA         CLOUDY    81  71  71 S15       29.82F
$$

NOTE: "FAIR" INDICATES FEW OR NO CLOUDS BELOW 12,000 FEET WITH NO
SIGNIFICANT WEATHER AND/OR OBSTRUCTIONS TO VISIBILITY. WIND
SPEEDS ARE IN MILES-PER-HOUR.




USA.gov is the U.S. government's official web portal to all federal, state and local government web resources and services.